SWA193 KSFO-KSAN

Flight info

Callsign SWA193
Flight time N/A
Altitude 39000
Route WESLA5 YYUNG LAX COMIX2
Aircraft B737/M-SADE2E3GIJ4RWZ/LB1D1

Departure

Time 2026-05-05 01:46
Airport San Francisco International Airport (KSFO)

Arrival

Time N/A
Airport San Diego International Airport (KSAN)
Time Latitude Longitude Altitude Speed Heading
2026-05-05 01:15 37.61884 -122.38380 19 ft 0 kts 297°
2026-05-05 01:29 37.61884 -122.38379 19 ft 1 kts 297°
2026-05-05 01:29 37.61873 -122.38352 21 ft 4 kts 297°
2026-05-05 01:29 37.61862 -122.38330 22 ft 4 kts 326°
2026-05-05 01:29 37.61844 -122.38328 19 ft 3 kts 27°
2026-05-05 01:30 37.61857 -122.38319 22 ft 4 kts 27°
2026-05-05 01:30 37.61881 -122.38304 20 ft 4 kts 27°
2026-05-05 01:30 37.61905 -122.38288 20 ft 4 kts 27°
2026-05-05 01:30 37.61912 -122.38283 20 ft 2 kts 27°
2026-05-05 01:33 37.61913 -122.38282 20 ft 1 kts 27°
2026-05-05 01:34 37.61928 -122.38273 20 ft 4 kts 27°
2026-05-05 01:34 37.61958 -122.38245 20 ft 7 kts 54°
2026-05-05 01:34 37.61957 -122.38181 20 ft 9 kts 114°
2026-05-05 01:34 37.61924 -122.38102 21 ft 12 kts 118°
2026-05-05 01:35 37.61882 -122.38001 22 ft 14 kts 118°
2026-05-05 01:35 37.61836 -122.37891 21 ft 14 kts 114°
2026-05-05 01:35 37.61801 -122.37780 20 ft 13 kts 110°
2026-05-05 01:35 37.61770 -122.37673 21 ft 13 kts 110°
2026-05-05 01:36 37.61739 -122.37569 20 ft 13 kts 110°
2026-05-05 01:36 37.61702 -122.37471 20 ft 12 kts 118°
2026-05-05 01:36 37.61662 -122.37378 20 ft 12 kts 118°
2026-05-05 01:36 37.61624 -122.37286 20 ft 12 kts 118°
2026-05-05 01:37 37.61587 -122.37197 20 ft 11 kts 117°
2026-05-05 01:37 37.61550 -122.37111 22 ft 11 kts 118°
2026-05-05 01:37 37.61515 -122.37027 20 ft 11 kts 117°
2026-05-05 01:37 37.61479 -122.36946 21 ft 10 kts 124°
2026-05-05 01:38 37.61434 -122.36878 20 ft 10 kts 132°
2026-05-05 01:38 37.61388 -122.36815 20 ft 10 kts 132°
2026-05-05 01:38 37.61350 -122.36745 20 ft 10 kts 118°
2026-05-05 01:38 37.61320 -122.36672 21 ft 9 kts 116°
2026-05-05 01:39 37.61290 -122.36600 20 ft 9 kts 118°
2026-05-05 01:39 37.61261 -122.36532 20 ft 9 kts 118°
2026-05-05 01:39 37.61233 -122.36464 22 ft 9 kts 118°
2026-05-05 01:39 37.61206 -122.36399 20 ft 8 kts 118°
2026-05-05 01:40 37.61179 -122.36336 20 ft 8 kts 118°
2026-05-05 01:40 37.61153 -122.36274 21 ft 8 kts 118°
2026-05-05 01:40 37.61128 -122.36215 21 ft 8 kts 118°
2026-05-05 01:40 37.61104 -122.36158 21 ft 7 kts 118°
2026-05-05 01:41 37.61080 -122.36102 20 ft 7 kts 118°
2026-05-05 01:41 37.61057 -122.36048 21 ft 7 kts 118°
2026-05-05 01:41 37.61046 -122.35992 20 ft 7 kts 87°
2026-05-05 01:41 37.61061 -122.35937 21 ft 7 kts 54°
2026-05-05 01:42 37.61088 -122.35912 20 ft 0 kts 32°
2026-05-05 01:43 37.61089 -122.35910 20 ft 1 kts 32°
2026-05-05 01:43 37.61103 -122.35899 20 ft 4 kts 32°
2026-05-05 01:44 37.61132 -122.35876 20 ft 6 kts 32°
2026-05-05 01:44 37.61169 -122.35855 21 ft 6 kts 359°
2026-05-05 01:44 37.61195 -122.35891 20 ft 6 kts 291°
2026-05-05 01:44 37.61202 -122.35908 20 ft 0 kts 297°
2026-05-05 01:46 37.61202 -122.35910 20 ft 4 kts 297°
2026-05-05 01:46 37.61311 -122.36178 21 ft 75 kts 297°
2026-05-05 01:46 37.61842 -122.37453 58 ft 165 kts 298°
2026-05-05 01:46 37.62506 -122.38741 838 ft 170 kts 303°
2026-05-05 01:47 37.62862 -122.39576 1855 ft 152 kts 293°
2026-05-05 01:47 37.63308 -122.40811 2724 ft 168 kts 295°
2026-05-05 01:47 37.63915 -122.42261 3017 ft 206 kts 297°
2026-05-05 01:47 37.64653 -122.43965 3010 ft 228 kts 298°
2026-05-05 01:48 37.65428 -122.45732 2984 ft 232 kts 298°
2026-05-05 01:48 37.66201 -122.47486 3000 ft 231 kts 298°
2026-05-05 01:48 37.66795 -122.49365 3068 ft 237 kts 276°
2026-05-05 01:48 37.66528 -122.51471 3686 ft 252 kts 245°
2026-05-05 01:49 37.65452 -122.53213 4829 ft 257 kts 217°
2026-05-05 01:49 37.63802 -122.54074 5904 ft 262 kts 185°
2026-05-05 01:49 37.62003 -122.53774 7018 ft 263 kts 162°
2026-05-05 01:49 37.60257 -122.52969 7954 ft 273 kts 157°
2026-05-05 01:50 37.58466 -122.52045 8862 ft 283 kts 156°
2026-05-05 01:50 37.56610 -122.51102 9776 ft 292 kts 157°
2026-05-05 01:50 37.54718 -122.50174 10629 ft 300 kts 157°
2026-05-05 01:50 37.52699 -122.49188 11029 ft 326 kts 158°
2026-05-05 01:51 37.50490 -122.48150 11448 ft 347 kts 159°
2026-05-05 01:51 37.48087 -122.47600 12248 ft 358 kts 181°
2026-05-05 01:51 37.45609 -122.47938 13248 ft 361 kts 187°
2026-05-05 01:51 37.43106 -122.48417 14154 ft 367 kts 188°
2026-05-05 01:52 37.40571 -122.48931 15018 ft 372 kts 188°
2026-05-05 01:52 37.38005 -122.49446 15943 ft 375 kts 187°
2026-05-05 01:52 37.35406 -122.49956 16859 ft 380 kts 187°
2026-05-05 01:52 37.32779 -122.50459 17746 ft 385 kts 186°
2026-05-05 01:53 37.30152 -122.50954 18595 ft 389 kts 186°
2026-05-05 01:53 37.27454 -122.51457 19306 ft 395 kts 186°
2026-05-05 01:53 37.24706 -122.51966 19978 ft 403 kts 185°
2026-05-05 01:53 37.21911 -122.52483 20668 ft 409 kts 185°
2026-05-05 01:54 37.19068 -122.53009 21362 ft 416 kts 185°
2026-05-05 01:54 37.16185 -122.53542 22048 ft 422 kts 185°
2026-05-05 01:54 37.13267 -122.54082 22732 ft 427 kts 185°
2026-05-05 01:54 37.10307 -122.54629 23398 ft 433 kts 184°
2026-05-05 01:55 37.07304 -122.55184 23996 ft 438 kts 184°
2026-05-05 01:55 37.04280 -122.55741 24586 ft 441 kts 184°
2026-05-05 01:55 37.01236 -122.55824 25147 ft 436 kts 167°
2026-05-05 01:55 36.98353 -122.54826 25753 ft 426 kts 149°
2026-05-05 01:56 36.95808 -122.53088 26378 ft 422 kts 143°
2026-05-05 01:56 36.93281 -122.51201 26934 ft 425 kts 142°
2026-05-05 01:56 36.90739 -122.49273 27462 ft 429 kts 142°
2026-05-05 01:56 36.88172 -122.47330 28012 ft 432 kts 142°
2026-05-05 01:57 36.85585 -122.45391 28532 ft 435 kts 142°
2026-05-05 01:57 36.82970 -122.43448 29039 ft 439 kts 143°
2026-05-05 01:57 36.80332 -122.41500 29500 ft 443 kts 143°
2026-05-05 01:57 36.77663 -122.39540 29940 ft 447 kts 143°
2026-05-05 01:58 36.74967 -122.37565 30327 ft 451 kts 143°
2026-05-05 01:58 36.72249 -122.35579 30635 ft 455 kts 144°
2026-05-05 01:58 36.69498 -122.33570 30944 ft 460 kts 144°
2026-05-05 01:58 36.66729 -122.31550 31217 ft 464 kts 145°
2026-05-05 01:59 36.63930 -122.29510 31551 ft 466 kts 146°
2026-05-05 01:59 36.61168 -122.27500 31991 ft 466 kts 146°
2026-05-05 01:59 36.58336 -122.25439 32459 ft 465 kts 146°
2026-05-05 01:59 36.55577 -122.23433 32869 ft 466 kts 147°
2026-05-05 02:00 36.52772 -122.21394 33250 ft 467 kts 147°
2026-05-05 02:00 36.49969 -122.19358 33640 ft 467 kts 148°
2026-05-05 02:00 36.47165 -122.17323 34060 ft 467 kts 148°
2026-05-05 02:00 36.44363 -122.15290 34414 ft 466 kts 148°
2026-05-05 02:01 36.41558 -122.13257 34741 ft 466 kts 148°
2026-05-05 02:01 36.38757 -122.11228 35041 ft 467 kts 149°
2026-05-05 02:01 36.35945 -122.09194 35337 ft 468 kts 149°
2026-05-05 02:01 36.33131 -122.07160 35648 ft 468 kts 149°
2026-05-05 02:02 36.30317 -122.05127 35994 ft 467 kts 150°
2026-05-05 02:02 36.27555 -122.03135 36343 ft 466 kts 150°
2026-05-05 02:02 36.24756 -122.01116 36658 ft 466 kts 150°
2026-05-05 02:02 36.21954 -121.99097 36959 ft 466 kts 150°
2026-05-05 02:03 36.19155 -121.97082 37297 ft 465 kts 150°
2026-05-05 02:03 36.16364 -121.95074 37655 ft 463 kts 151°
2026-05-05 02:03 36.13581 -121.93074 37973 ft 463 kts 151°
2026-05-05 02:03 36.10802 -121.91078 38263 ft 463 kts 151°
2026-05-05 02:04 36.08014 -121.89077 38558 ft 462 kts 151°
2026-05-05 02:04 36.05241 -121.87088 38831 ft 461 kts 151°
2026-05-05 02:04 36.02460 -121.85096 39041 ft 462 kts 152°
2026-05-05 02:04 35.99777 -121.82871 39007 ft 469 kts 138°
2026-05-05 02:05 35.95621 -121.76737 39039 ft 469 kts 129°
2026-05-05 02:05 35.91733 -121.70328 39033 ft 465 kts 129°
2026-05-05 02:06 35.87833 -121.63987 39032 ft 463 kts 129°
2026-05-05 02:06 35.83901 -121.57718 39036 ft 461 kts 130°
2026-05-05 02:07 35.79964 -121.51490 39035 ft 460 kts 130°
2026-05-05 02:07 35.76048 -121.45307 39033 ft 461 kts 130°
2026-05-05 02:08 35.72101 -121.39081 39035 ft 462 kts 130°
2026-05-05 02:08 35.68134 -121.32833 39036 ft 464 kts 130°
2026-05-05 02:09 35.64144 -121.26557 39031 ft 466 kts 131°
2026-05-05 02:09 35.60135 -121.20265 39038 ft 468 kts 131°
2026-05-05 02:10 35.56112 -121.13960 39034 ft 470 kts 131°
2026-05-05 02:10 35.52076 -121.07647 39036 ft 470 kts 131°
2026-05-05 02:11 35.48184 -121.01248 39038 ft 472 kts 129°
2026-05-05 02:11 35.44419 -120.94652 39030 ft 472 kts 128°
2026-05-05 02:12 35.38771 -120.84800 39038 ft 470 kts 129°
2026-05-05 02:13 35.34987 -120.78288 39040 ft 468 kts 129°
2026-05-05 02:13 35.31206 -120.71810 39048 ft 467 kts 130°
2026-05-05 02:14 35.27426 -120.65347 39038 ft 466 kts 130°
2026-05-05 02:14 35.23678 -120.58948 39047 ft 465 kts 130°
2026-05-05 02:15 35.19906 -120.52520 39044 ft 465 kts 130°
2026-05-05 02:15 35.16130 -120.46096 39033 ft 465 kts 130°
2026-05-05 02:16 35.12360 -120.39693 39046 ft 464 kts 131°
2026-05-05 02:16 35.08610 -120.33336 39043 ft 464 kts 131°
2026-05-05 02:17 35.04836 -120.26950 39041 ft 464 kts 131°